Content
SEND FEEDBACK

Daily
Averages
Monthly
Summary
United States of America

BETTLES, ALASKA


Home > North America > United States > Alaska
Elevation: 643 feet     Latitude: 66 55N     Longitude: 151 32W

WEATHER
 
SELECT A DAY
Number of Records: 184,555;   Date Range: 1/1/95 - 7/20/14
 
SHARE

PRINT THIS DATA

[ ← Previous Day ]
WEATHER ALMANAC - JANUARY 23, 2013
[ Next Day → ]
[ °C ]   °F
Weather ElementAverageHighLow
Temperature-12.2 °F10 °F (1:53 am)-18 °F (10:53 pm)
Dewpoint-18.5 °F-9 °F (3:53 am)-24 °F (5:53 pm)
Humidity75 %87 % (10:53 pm)29 % (1:53 am)
Barometer30.01 in30.06 in (10:53 pm)29.98 in (1:53 pm)
Wind Speed6.1 mph10.4 mph (1:53 am)
Wind Gust18.4 mph (1:53 am)
Weather ElementAverage
Visibility10 mi
Wind DirectionESE (124.1 °)

Weather ElementTotal
Precipitation---
Heating Degree Days69 (Base 65)
Averaged from 22 records on January 23, 2013
WEATHER CONDITIONS BREAKOUT
WIND DIRECTION BREAKOUT
WEATHER BY HOUR - JANUARY 23, 2013
[ °C ]   °F
Local TimeTemperatureDewpointHumidityBarometerVisibilityWind DirectionWind SpeedGust SpeedPrecipitationEventsConditions
1:53 AM10.0 °F-17.0 °F29 %30.04 in10.0 miENE (60°)10.4 mph18.4 mphClear
3:53 AM-4.9 °F-9.0 °F82 %30.04 in10.0 miNNW (340°)4.6 mphClear
4:53 AM-9.0 °F-13.9 °F79 %30.02 in10.0 miNorth (10°)6.9 mphClear
5:53 AM-9.0 °F-13.9 °F79 %30.02 in10.0 miNorth (10°)5.8 mphClear
6:53 AM-11.0 °F-16.1 °F78 %30.01 in10.0 miNorth (360°)4.6 mphClear
7:53 AM-11.0 °F-16.1 °F78 %30.00 in10.0 miNorth (10°)6.9 mphClear
8:53 AM-14.1 °F-20.0 °F75 %30.00 in10.0 miNorth (10°)5.8 mphClear
9:53 AM-14.1 °F-20.0 °F75 %30.00 in10.0 miNE (40°)5.8 mphClear
10:53 AM-15.0 °F-20.9 °F75 %30.00 in10.0 miNorth (360°)4.6 mphClear
11:53 AM-14.1 °F-20.9 °F71 %29.99 in10.0 miNNE (20°)6.9 mphClear
12:53 PM-11.0 °F-16.1 °F78 %29.99 in10.0 miNorth (10°)8.1 mphClear
1:53 PM-9.9 °F-15.0 °F78 %29.98 in10.0 miNorth (360°)5.8 mphClear
2:53 PM-9.9 °F-16.1 °F74 %29.99 in10.0 miNorth (10°)5.8 mphClear
3:53 PM-11.9 °F-18.0 °F74 %29.99 in10.0 miNNE (20°)5.8 mphClear
4:53 PM-16.1 °F-22.0 °F74 %29.99 in10.0 miNorth (10°)5.8 mphClear
5:53 PM-16.1 °F-24.0 °F67 %30.00 in10.0 miNNW (340°)6.9 mphClear
6:53 PM-16.1 °F-20.0 °F82 %30.01 in10.0 miNorth (350°)6.9 mphClear
7:53 PM-16.1 °F-20.0 °F82 %30.02 in10.0 miNorth (10°)4.6 mphClear
8:53 PM-17.0 °F-24.0 °F70 %30.04 in10.0 miNorth (10°)4.6 mphClear
9:53 PM-17.0 °F-20.9 °F82 %30.04 in10.0 miNorth (10°)5.8 mphClear
10:53 PM-18.0 °F-20.9 °F87 %30.06 in10.0 miNorth (360°)4.6 mphClear
11:53 PM-18.0 °F-22.0 °F82 %30.06 in10.0 miNNE (20°)6.9 mphClear
Hourly data recorded from PABT, located miles away from Bettles, Alaska







STORIES FROM OUR PARTNERS